Weather History for Waskish, MN

Change the Weather History Date:

Thursday, February 7, 2013

  Actual Average (KBDE) Record (KBDE)
Temperature  
Mean Temperature 10 °F -  
Max Temperature 21 °F 21 °F 47 °F (1991)
Min Temperature -2 °F -4 °F -46 °F (1933)
Degree Days  
Heating Degree Days 56    
Moisture  
Dew Point 4 °F    
Average Humidity 86    
Maximum Humidity 93    
Minimum Humidity 68    
Precipitation  
Precipitation 0.00 in - - ()
Sea Level Pressure  
Sea Level Pressure 30.22 in    
Wind  
Wind Speed 1 mph (NNE)    
Max Wind Speed 4 mph    
Max Gust Speed -    
Visibility 10 miles    
Events Snow    
Averages and records for this station are not official NWS values.
T = Trace of Precipitation, MM = Missing Value Source: NWS Daily Summary

Daily Weather History Graph

Daily Weather History Graph

Search for Another Location

Airport:

Trip Planner

Search our weather history database for the weather conditions in past years. The results will help you decide how hot, cold, wet, or windy it might be!

Date:

Astronomy

Feb. 07, 2013 Rise Set
Actual Time 7:37 AM CST 5:27 PM CST
Civil Twilight 7:04 AM CST 6:00 PM CST
Nautical Twilight 6:27 AM CST 6:37 PM CST
Astronomical Twilight 5:51 AM CST 7:13 PM CST
Moon 5:24 AM CST (2/7) 2:46 PM CST (2/7)
Length of Visible Light 10h 56m
Length of Day
9h 50m
Waning Crescent, 9% of the Moon is Illuminated
Feb 7
Waning Crescent
Feb 10
New
Feb 17
First Quarter
Feb 25
Full
Mar 4
Last Quarter

Hourly Weather History & Observations

Time (CST) Temp. Windchill Dew Point Humidity Pressure Visibility Wind Dir Wind Speed Gust Speed Precip Events Conditions
12:53 AM 3.2 °F -4.2 °F 1.4 °F 92% 30.13 in 7.0 mi NNE 3.5 mph - N/A   Clear
1:14 AM 1.4 °F -6.2 °F -0.4 °F 92% 30.13 in 10.0 mi NNE 3.5 mph - N/A   Clear
1:33 AM 1.4 °F - -0.4 °F 92% 30.13 in 10.0 mi Calm Calm - N/A   Clear
1:53 AM 1.4 °F -6.2 °F -2.2 °F 85% 30.14 in 10.0 mi NE 3.5 mph - N/A   Clear
2:14 AM 1.4 °F -6.2 °F -0.4 °F 92% 30.15 in 10.0 mi NE 3.5 mph - N/A   Clear
2:53 AM 1.4 °F -6.2 °F -0.4 °F 92% 30.15 in 10.0 mi NE 3.5 mph - N/A   Clear
3:33 AM 1.4 °F - -2.2 °F 85% 30.16 in 10.0 mi Calm Calm - N/A   Clear
3:53 AM -0.4 °F - -2.2 °F 92% 30.16 in 10.0 mi Calm Calm - N/A   Clear
4:14 AM -0.4 °F - -4.0 °F 85% 30.16 in 10.0 mi Calm Calm - N/A   Scattered Clouds
4:33 AM -0.4 °F -8.3 °F -2.2 °F 92% 30.16 in 10.0 mi NE 3.5 mph - N/A   Overcast
5:33 AM 1.4 °F - -0.4 °F 92% 30.18 in 10.0 mi Calm Calm - N/A   Overcast
5:53 AM 3.2 °F - -0.4 °F 85% 30.18 in 10.0 mi Calm Calm - N/A   Overcast
6:14 AM 3.2 °F - 1.4 °F 92% 30.18 in 10.0 mi Calm Calm - N/A Snow Light Snow
6:33 AM 3.2 °F - 1.4 °F 92% 30.18 in 10.0 mi Calm Calm - N/A Snow Light Snow
6:53 AM 3.2 °F -4.2 °F 1.4 °F 92% 30.18 in 10.0 mi NE 3.5 mph - N/A   Overcast
7:14 AM 3.2 °F - 1.4 °F 92% 30.19 in 10.0 mi Calm Calm - N/A   Overcast
7:33 AM 5.0 °F - 1.4 °F 85% 30.20 in 10.0 mi Calm Calm - N/A Snow Light Snow
7:53 AM 5.0 °F - 3.2 °F 92% 30.20 in 4.0 mi Calm Calm - N/A Snow Light Snow
8:33 AM 6.8 °F - 3.2 °F 85% 30.21 in 3.0 mi Calm Calm - N/A Snow Light Snow
9:13 AM 8.6 °F - 6.8 °F 92% 30.24 in 10.0 mi Calm Calm - N/A Snow Light Snow
9:33 AM 8.6 °F - 6.8 °F 92% 30.24 in 10.0 mi Calm Calm - N/A Snow Light Snow
10:13 AM 10.4 °F - 8.6 °F 92% 30.24 in 7.0 mi Calm Calm - N/A Snow Light Snow
10:33 AM 10.4 °F - 8.6 °F 92% 30.24 in 7.0 mi Calm Calm - N/A Snow Light Snow
10:54 AM 12.2 °F - 10.4 °F 92% 30.25 in 10.0 mi Calm Calm - N/A Snow Light Snow
11:13 AM 15.8 °F - 14.0 °F 93% 30.25 in 10.0 mi Calm Calm - N/A   Overcast
11:33 AM 15.8 °F - 12.2 °F 86% 30.26 in 10.0 mi Calm Calm - N/A   Mostly Cloudy
11:53 AM 15.8 °F - 12.2 °F 86% 30.25 in 10.0 mi Calm Calm - N/A   Overcast
12:13 PM 17.6 °F - 12.2 °F 79% 30.25 in 10.0 mi Calm Calm - N/A   Overcast
12:33 PM 17.6 °F - 12.2 °F 79% 30.25 in 10.0 mi Calm Calm - N/A   Overcast
12:53 PM 21.2 °F - 12.2 °F 68% 30.24 in 10.0 mi Calm Calm - N/A   Mostly Cloudy
1:13 PM 21.2 °F - 12.2 °F 68% 30.24 in 10.0 mi Calm Calm - N/A   Scattered Clouds
1:33 PM 19.4 °F 14.3 °F 12.2 °F 74% 30.25 in 10.0 mi WNW 3.5 mph - N/A   Clear
2:13 PM 19.4 °F - 12.2 °F 74% 30.24 in 10.0 mi Calm Calm - N/A   Overcast
3:34 PM 21.2 °F 16.4 °F 15.8 °F 80% 30.23 in 10.0 mi NE 3.5 mph - N/A   Scattered Clouds
3:53 PM 21.2 °F 16.4 °F 14.0 °F 74% 30.22 in 10.0 mi NE 3.5 mph - N/A   Clear
4:34 PM 17.6 °F - 10.4 °F 73% 30.23 in 10.0 mi Calm Calm - N/A   Clear
4:53 PM 15.8 °F - 10.4 °F 79% 30.23 in 10.0 mi Calm Calm - N/A   Clear
5:13 PM 12.2 °F - 8.6 °F 85% 30.23 in 10.0 mi Calm Calm - N/A   Clear
5:34 PM 10.4 °F - 6.8 °F 85% 30.24 in 10.0 mi Calm Calm - N/A   Clear
5:53 PM 8.6 °F - 6.8 °F 92% 30.25 in 10.0 mi Calm Calm - N/A   Clear
6:33 PM 5.0 °F - 3.2 °F 92% 30.25 in 10.0 mi Calm Calm - N/A   Clear
6:53 PM 3.2 °F - 1.4 °F 92% 30.25 in 10.0 mi Calm Calm - N/A   Clear
7:14 PM 3.2 °F - -0.4 °F 85% 30.25 in 10.0 mi Calm Calm - N/A   Clear
8:33 PM -2.2 °F - -5.8 °F 85% 30.26 in 10.0 mi Calm Calm - N/A   Clear
8:53 PM -2.2 °F - -5.8 °F 85% 30.27 in 10.0 mi Calm Calm - N/A   Mostly Cloudy
9:33 PM -0.4 °F - -4.0 °F 85% 30.27 in 10.0 mi Calm Calm - N/A Snow Light Snow
10:14 PM 1.4 °F - -0.4 °F 92% 30.28 in 10.0 mi Calm Calm - N/A   Overcast
11:33 PM 3.2 °F - 1.4 °F 92% 30.28 in 10.0 mi Calm Calm - N/A   Mostly Cloudy
11:53 PM 1.4 °F - -2.2 °F 85% 30.27 in 10.0 mi Calm Calm - N/A   Scattered Clouds